Regional Weather Roundup
Issued by NWS Sioux Falls, SD

Home | Current Version | Previous Version | Text Only | Print | Product List | Glossary Off
Versions: 1 2 3 4 5 6 7 8 9 10 11 12 13 14 15 16 17 18 19 20 21 22 23 24 25 26 27 28 29 30 31 32 33 34 35 36 37 38 39 40 41 42 43 44 45 46 47 48 49 50

189
ASUS43 KFSD 270010
RWRFSD

WEATHER ROUNDUP FOR SE SOUTH DAKOTA/SW MINNESOTA/NW IOWA
NATIONAL WEATHER SERVICE SIOUX FALLS SD
700 PM CDT WED APR 26 2017

NOTE: "FAIR" INDICATES FEW OR NO CLOUDS BELOW 12,000 FEET WITH NO
SIGNIFICANT WEATHER AND OR OBSTRUCTIONS TO VISIBILITY.


SDZ038>040-050-052>070-270100-
SOUTHEAST SOUTH DAKOTA

CITY           SKY/WX    TMP DP  RH WIND       PRES   REMARKS
BROOKINGS      CLOUDY    31  25  78 N16       29.66S WCI  20
CHAMBERLAIN    CLOUDY    45  31  57 NW13      29.70F
6HR MIN TEMP:  38; 6HR MAX TEMP:  47;

HURON          CLOUDY    34  28  79 N15       29.73R WCI  24
6HR MIN TEMP:  34; 6HR MAX TEMP:  39;

MADISON        CLOUDY    32  32 100 NW17      29.68R WCI  21
MITCHELL       CLOUDY    37  29  72 N15       29.73R
6HR MIN TEMP:  36; 6HR MAX TEMP:  39;

SIOUX FALLS    CLOUDY    35  29  78 NW17      29.67S WCI  25
6HR MIN TEMP:  35; 6HR MAX TEMP:  38;

WINNER         MOCLDY    47  29  49 N13       29.70S
YANKTON        CLOUDY    39  28  65 NW16G22   29.69F
$$

MNZ071-072-080-081-089-090-097-098-270100-
SOUTHWEST MINNESOTA

CITY           SKY/WX    TMP DP  RH WIND       PRES   REMARKS
FAIRMONT       CLOUDY    36  33  89 NW20      29.61R
JACKSON        CLOUDY    34  32  93 NW15      29.62R WCI  24
LUVERNE        CLOUDY    32  28  86 NW14G20   29.66S WCI  22
MARSHALL       CLOUDY    31  28  89 NW20G25   29.65R WCI  19
6HR MIN TEMP:  31; 6HR MAX TEMP:  35; 6HR PCP: TRACE;

MONTEVIDEO     CLOUDY    32  30  93 N12G20    29.65R WCI  23
PIPESTONE      CLOUDY    32  25  74 N13G24    29.64R WCI  22
REDWOOD FALLS  CLOUDY    35  29  78 NW16G22   29.63R WCI  25
TRACY          CLOUDY    32  30  92 NW18      29.65R WCI  20
WINDOM         CLOUDY    34  30  86 NW20G26   29.62S WCI  22
WORTHINGTON    CLOUDY    33  29  85 NW17      29.63S WCI  22
$$

IAZ001>003-012>014-020>022-031-032-NEZ013-014-SDZ071-270100-
NORTHWEST IOWA

CITY           SKY/WX    TMP DP  RH WIND       PRES   REMARKS
CHEROKEE       CLOUDY    37  33  85 NW13G18   29.65R
DENISON        CLOUDY    39  34  81 NW17      29.64F
ESTHERVILLE    CLOUDY    35  33  92 NW15      29.62R WCI  25
LE MARS        CLOUDY    39  32  75 N12G20    29.66F
ORANGE CITY    CLOUDY    37  34  87 NW14      29.64F
SHELDON        CLOUDY    36  30  80 NW21      29.62F
SIOUX CITY     CLOUDY    41  32  70 NW23G29   29.65S
6HR MIN TEMP:  38; 6HR MAX TEMP:  42;

SPENCER        CLOUDY    37  32  82 N15       29.63R
6HR MIN TEMP:  37; 6HR MAX TEMP:  41;

STORM LAKE       N/A     37  32  81 NW17G23   29.63R
$$

ABBREVIATIONS USED IN REMARKS
   TC - TEMPERATURE IN CELSIUS
  WCI - WIND CHILL INDEX
   HX - HEAT INDEX
  VSB - VISIBILITY





USA.gov is the U.S. government's official web portal to all federal, state and local government web resources and services.